Home   Weather   Phnom Penh   Past weeks

Flag for Cambodia Past Weather in Phnom Penh, Cambodia — Yesterday and Last 2 Weeks

Now
79 °F

Passing clouds.


Feels Like: 83 °F
Forecast: 77 / 88 °F
Wind: 3 mph from South

Location: Phnom-Penh / Pochentong

Current Time: Sep 30, 2016 at 1:41:35 AM

Latest Report: Sep 30, 2016 at 1:00 AM


Visibility: 6 mi

Pressure: 29.68 "Hg

Humidity: 94%

Dew Point: 77 °F

Location of Phnom PenhLocation

Past Weather in Phnom Penh — Graph

°F

Phnom Penh Temperature Yesterday

Maximum temperature yesterday: 90 °F (at 2:00 PM)
Minimum temperature yesterday: 79 °F (at 12:00 AM)
Average temperature yesterday: 82 °F

High & Low Weather Summary for the Past Weeks

 TemperatureHumidityPressure
High99 °F (Sep 24, 12:00 PM)100% (Sep 15, 6:30 PM)29.80 "Hg (Sep 15, 6:30 PM)
Low75 °F (Sep 17, 5:30 PM)47% (Sep 15, 2:30 PM)29.59 "Hg (Sep 19, 2:30 PM)
Average83 °F82%29.71 "Hg
* Reported Sep 15 12:00 AM — Sep 30 12:00 AM, Phnom Penh, Weather by CustomWeather, © 2016

Note: Actual official high and low records may vary slightly from our data, if they occured in-between our weather recording intervals... More about our weather records

Advertising

Phnom Penh Weather History for the Previous 24 Hours

Scroll right to see more
 ConditionsComfort  
Time TempWeatherWind HumidityBarometerVisibility
12:00 AM
Fri, Sep 30
81 °FPartly cloudy.3 mph89%29.71 "Hg6 mi
11:30 PM
Thu, Sep 29
81 °FPartly cloudy.3 mph89%29.71 "Hg6 mi
11:00 PM81 °FPartly cloudy.3 mph89%29.71 "Hg6 mi
10:00 PM81 °FPartly cloudy.3 mph89%29.71 "Hg6 mi
9:30 PM81 °FPartly cloudy.3 mph89%29.74 "Hg6 mi
9:00 PM81 °FPartly cloudy.3 mph89%29.71 "Hg6 mi
8:30 PM81 °FPartly cloudy.5 mph89%29.71 "Hg6 mi
8:00 PM79 °FPartly cloudy.3 mph94%29.71 "Hg6 mi
7:30 PM79 °FPartly cloudy.3 mph94%29.68 "Hg6 mi
7:00 PM79 °FLight rain. Partly cloudy.5 mph94%29.68 "Hg6 mi
6:30 PM79 °FLight rain. Partly cloudy.5 mph94%29.65 "Hg6 mi
6:00 PM79 °FLight rain. Partly cloudy.6 mph94%29.65 "Hg6 mi
5:30 PM79 °FLight rain. Broken clouds.6 mph94%29.65 "Hg6 mi
5:00 PM79 °FLight rain. Broken clouds.8 mph94%29.68 "Hg5 mi
4:30 PM81 °FLight rain. Broken clouds.13 mph79%29.65 "Hg5 mi
4:00 PM84 °FRain. Broken clouds.12 mph70%29.65 "HgN/A
3:00 PM90 °FScattered clouds.2 mph67%29.62 "HgN/A
2:30 PM90 °FScattered clouds.3 mph63%29.62 "HgN/A
2:00 PM90 °FScattered clouds.5 mph63%29.65 "HgN/A
1:30 PM88 °FScattered clouds.7 mph70%29.65 "HgN/A
1:00 PM88 °FScattered clouds.5 mph66%29.68 "HgN/A
12:30 PM86 °FBroken clouds.5 mph70%29.68 "HgN/A
12:00 PM86 °FBroken clouds.5 mph70%29.71 "HgN/A
11:00 AM84 °FBroken clouds.6 mph74%29.74 "HgN/A
10:30 AM84 °FBroken clouds.3 mph79%29.74 "HgN/A
10:00 AM84 °FBroken clouds.6 mph79%29.74 "HgN/A
9:30 AM82 °FBroken clouds.6 mph84%29.74 "HgN/A
9:00 AM82 °FBroken clouds.5 mph84%29.74 "HgN/A
8:30 AM81 °FBroken clouds.3 mph89%29.74 "HgN/A
8:00 AM81 °FBroken clouds.1 mph89%29.74 "HgN/A
7:30 AM79 °FLight rain. Broken clouds.1 mph89%29.74 "Hg6 mi
7:00 AM79 °FBroken clouds.1 mph89%29.71 "Hg6 mi
6:30 AM79 °FBroken clouds.1 mph89%29.71 "Hg6 mi
6:00 AM79 °FScattered clouds.2 mph89%29.68 "Hg6 mi
2:30 AM79 °FPassing clouds.3 mph94%29.68 "Hg6 mi
2:00 AM79 °FPartly cloudy.2 mph94%29.68 "Hg6 mi
1:30 AM79 °FPartly cloudy.5 mph94%29.68 "Hg6 mi
1:00 AM79 °FPartly cloudy.5 mph94%29.71 "Hg6 mi
Weather by CustomWeather, © 2016

See weather overviewHow to use our weather pages